Clear with few low clouds and few cirrus
Clear but hazy with few cirrus
Clear but hazy with cirrus
Clear but hazy with cirrus
Clear with cirrus
Clear, few cirrus
Clear, cloudless sky
(°F)
48°
48°
49°
49°
50°
50°
53°
53°
56°
56°
59°
59°
63°
63°
(°F)
46°
45°
47°
50°
54°
59°
63°
NE
NE
NE
NE
NE
SSW
SSW
(mph)
3-7
4-9
4-9
4-9
2-9
1-5
1-4
(in)
0
0
0
0
0
0
0
(%)
0
0
0
0
0
0
0

Sun elevation

/ -8.6°
sun-icon
UV 7
06:38
20:10
Waxing crescent moon (63°)
09:14
01:24

METAR for Lugano (LSZA)

Time Conditions Temperature/
Dewpoint
Wind Visibility Weather Clouds Pressure Change Raw
VFR 48.2°F / 46.4°F 1kt 9700m - Clouds and Visibility OK 1028 - LSZA 130320Z AUTO VRB01KT CAVOK 09/08 Q1028
VFR 48.2°F / 46.4°F 360º 3kt 9700m - Clouds and Visibility OK 1028 - LSZA 130250Z AUTO 36003KT CAVOK 09/08 Q1028
VFR 50°F / 48.2°F 2kt 9700m - Clouds and Visibility OK 1028 - LSZA 130220Z AUTO VRB02KT CAVOK 10/09 Q1028
VFR 50°F / 48.2°F 1kt 9700m - Clouds and Visibility OK 1028 - LSZA 130150Z AUTO VRB01KT CAVOK 10/09 Q1028
VFR 51.8°F / 48.2°F 1kt 9700m - Clouds and Visibility OK 1028 - LSZA 130120Z AUTO VRB01KT CAVOK 11/09 Q1028
VFR 51.8°F / 50°F 10º 2kt 9700m - Clouds and Visibility OK 1029 - LSZA 130050Z AUTO 01002KT CAVOK 11/10 Q1029
VFR 51.8°F / 50°F 1kt 9700m - Clouds and Visibility OK 1029 - LSZA 130020Z AUTO VRB01KT CAVOK 11/10 Q1029
VFR 53.6°F / 51.8°F 1kt 9700m - Clouds and Visibility OK 1029 - LSZA 122350Z AUTO VRB01KT CAVOK 12/11 Q1029
VFR 55.4°F / 51.8°F 1kt 9700m - Clouds and Visibility OK 1029 - LSZA 122320Z AUTO VRB01KT CAVOK 13/11 Q1029
VFR 55.4°F / 51.8°F 1kt 9700m - Clouds and Visibility OK 1029 - LSZA 122250Z AUTO VRB01KT CAVOK 13/11 Q1029
VFR 55.4°F / 51.8°F 1kt 9700m - Clouds and Visibility OK 1029 - LSZA 122220Z AUTO VRB01KT CAVOK 13/11 Q1029
VFR 57.2°F / 51.8°F 2kt 9700m - Clouds and Visibility OK 1028 - LSZA 122150Z AUTO VRB02KT CAVOK 14/11 Q1028
VFR 59°F / 53.6°F 1kt 9700m - Clouds and Visibility OK 1028 - LSZA 122120Z AUTO VRB01KT CAVOK 15/12 Q1028
VFR 59°F / 53.6°F 1kt 9700m - Clouds and Visibility OK 1028 - LSZA 122050Z AUTO VRB01KT CAVOK 15/12 Q1028
VFR 59°F / 53.6°F 1kt 9700m - Clouds and Visibility OK 1028 - LSZA 122020Z AUTO VRB01KT CAVOK 15/12 Q1028
VFR 60.8°F / 53.6°F 2kt 9700m - Clouds and Visibility OK 1028 - LSZA 121950Z AUTO VRB02KT CAVOK 16/12 Q1028
VFR 64.4°F / 53.6°F 360º 3kt 9700m - Clouds and Visibility OK 1028 - LSZA 121920Z AUTO 36003KT CAVOK 18/12 Q1028
VFR 66.2°F / 53.6°F 340º 3kt 9700m - Clouds and Visibility OK 1027 - LSZA 121850Z AUTO 34003KT CAVOK 19/12 Q1027
VFR 68°F / 51.8°F 3kt 9700m - Clouds and Visibility OK 1027 - LSZA 121820Z VRB03KT CAVOK 20/11 Q1027
VFR 71.6°F / 51.8°F 180º variable 130º to 210º 5kt 9700m - Clouds and Visibility OK 1027 - LSZA 121750Z 18005KT 130V210 CAVOK 22/11 Q1027
VFR 71.6°F / 51.8°F 200º 4kt 9700m - Clouds and Visibility OK 1026 - LSZA 121720Z 20004KT CAVOK 22/11 Q1026
VFR 73.4°F / 51.8°F 190º 8kt 9700m - Clouds and Visibility OK 1026 - LSZA 121650Z 19008KT CAVOK 23/11 Q1026
VFR 75.2°F / 51.8°F 190º 9kt 9700m - Clouds and Visibility OK 1026 - LSZA 121620Z 19009KT CAVOK 24/11 Q1026
VFR 75.2°F / 51.8°F 190º 8kt 9700m - Clouds and Visibility OK 1026 - LSZA 121550Z 19008KT CAVOK 24/11 Q1026

VFR

48.2°F / 46.4°F

[More]
Wind 1kt
Visibility 9700m
Weather -
Clouds Clouds and Visibility OK
Pressure 1028
Change -
Raw LSZA 130320Z AUTO VRB01KT CAVOK 09/08 Q1028

VFR

48.2°F / 46.4°F

[More]
Wind 360º 3kt
Visibility 9700m
Weather -
Clouds Clouds and Visibility OK
Pressure 1028
Change -
Raw LSZA 130250Z AUTO 36003KT CAVOK 09/08 Q1028

VFR

50°F / 48.2°F

[More]
Wind 2kt
Visibility 9700m
Weather -
Clouds Clouds and Visibility OK
Pressure 1028
Change -
Raw LSZA 130220Z AUTO VRB02KT CAVOK 10/09 Q1028

VFR

50°F / 48.2°F

[More]
Wind 1kt
Visibility 9700m
Weather -
Clouds Clouds and Visibility OK
Pressure 1028
Change -
Raw LSZA 130150Z AUTO VRB01KT CAVOK 10/09 Q1028

VFR

51.8°F / 48.2°F

[More]
Wind 1kt
Visibility 9700m
Weather -
Clouds Clouds and Visibility OK
Pressure 1028
Change -
Raw LSZA 130120Z AUTO VRB01KT CAVOK 11/09 Q1028

VFR

51.8°F / 50°F

[More]
Wind 10º 2kt
Visibility 9700m
Weather -
Clouds Clouds and Visibility OK
Pressure 1029
Change -
Raw LSZA 130050Z AUTO 01002KT CAVOK 11/10 Q1029

VFR

51.8°F / 50°F

[More]
Wind 1kt
Visibility 9700m
Weather -
Clouds Clouds and Visibility OK
Pressure 1029
Change -
Raw LSZA 130020Z AUTO VRB01KT CAVOK 11/10 Q1029

VFR

53.6°F / 51.8°F

[More]
Wind 1kt
Visibility 9700m
Weather -
Clouds Clouds and Visibility OK
Pressure 1029
Change -
Raw LSZA 122350Z AUTO VRB01KT CAVOK 12/11 Q1029

VFR

55.4°F / 51.8°F

[More]
Wind 1kt
Visibility 9700m
Weather -
Clouds Clouds and Visibility OK
Pressure 1029
Change -
Raw LSZA 122320Z AUTO VRB01KT CAVOK 13/11 Q1029

VFR

55.4°F / 51.8°F

[More]
Wind 1kt
Visibility 9700m
Weather -
Clouds Clouds and Visibility OK
Pressure 1029
Change -
Raw LSZA 122250Z AUTO VRB01KT CAVOK 13/11 Q1029

VFR

55.4°F / 51.8°F

[More]
Wind 1kt
Visibility 9700m
Weather -
Clouds Clouds and Visibility OK
Pressure 1029
Change -
Raw LSZA 122220Z AUTO VRB01KT CAVOK 13/11 Q1029

VFR

57.2°F / 51.8°F

[More]
Wind 2kt
Visibility 9700m
Weather -
Clouds Clouds and Visibility OK
Pressure 1028
Change -
Raw LSZA 122150Z AUTO VRB02KT CAVOK 14/11 Q1028

VFR

59°F / 53.6°F

[More]
Wind 1kt
Visibility 9700m
Weather -
Clouds Clouds and Visibility OK
Pressure 1028
Change -
Raw LSZA 122120Z AUTO VRB01KT CAVOK 15/12 Q1028

VFR

59°F / 53.6°F

[More]
Wind 1kt
Visibility 9700m
Weather -
Clouds Clouds and Visibility OK
Pressure 1028
Change -
Raw LSZA 122050Z AUTO VRB01KT CAVOK 15/12 Q1028

VFR

59°F / 53.6°F

[More]
Wind 1kt
Visibility 9700m
Weather -
Clouds Clouds and Visibility OK
Pressure 1028
Change -
Raw LSZA 122020Z AUTO VRB01KT CAVOK 15/12 Q1028

VFR

60.8°F / 53.6°F

[More]
Wind 2kt
Visibility 9700m
Weather -
Clouds Clouds and Visibility OK
Pressure 1028
Change -
Raw LSZA 121950Z AUTO VRB02KT CAVOK 16/12 Q1028

VFR

64.4°F / 53.6°F

[More]
Wind 360º 3kt
Visibility 9700m
Weather -
Clouds Clouds and Visibility OK
Pressure 1028
Change -
Raw LSZA 121920Z AUTO 36003KT CAVOK 18/12 Q1028

VFR

66.2°F / 53.6°F

[More]
Wind 340º 3kt
Visibility 9700m
Weather -
Clouds Clouds and Visibility OK
Pressure 1027
Change -
Raw LSZA 121850Z AUTO 34003KT CAVOK 19/12 Q1027

VFR

68°F / 51.8°F

[More]
Wind 3kt
Visibility 9700m
Weather -
Clouds Clouds and Visibility OK
Pressure 1027
Change -
Raw LSZA 121820Z VRB03KT CAVOK 20/11 Q1027

VFR

71.6°F / 51.8°F

[More]
Wind 180º variable 130º to 210º 5kt
Visibility 9700m
Weather -
Clouds Clouds and Visibility OK
Pressure 1027
Change -
Raw LSZA 121750Z 18005KT 130V210 CAVOK 22/11 Q1027

VFR

71.6°F / 51.8°F

[More]
Wind 200º 4kt
Visibility 9700m
Weather -
Clouds Clouds and Visibility OK
Pressure 1026
Change -
Raw LSZA 121720Z 20004KT CAVOK 22/11 Q1026

VFR

73.4°F / 51.8°F

[More]
Wind 190º 8kt
Visibility 9700m
Weather -
Clouds Clouds and Visibility OK
Pressure 1026
Change -
Raw LSZA 121650Z 19008KT CAVOK 23/11 Q1026

VFR

75.2°F / 51.8°F

[More]
Wind 190º 9kt
Visibility 9700m
Weather -
Clouds Clouds and Visibility OK
Pressure 1026
Change -
Raw LSZA 121620Z 19009KT CAVOK 24/11 Q1026

VFR

75.2°F / 51.8°F

[More]
Wind 190º 8kt
Visibility 9700m
Weather -
Clouds Clouds and Visibility OK
Pressure 1026
Change -
Raw LSZA 121550Z 19008KT CAVOK 24/11 Q1026

TAF for Lugano (LSZA)

From till


From till Wind 2kt. Visibility 9700m. Nil Significant Cloud.

Raw: TAF LSZA 130225Z 1303/1312 VRB02KT CAVOK

rainNOW: Rain nowcast for Lugano and surroundings (25km radius)

0.0 inch
0.0 inch
0.0 inch
0.0 inch
0.0 inch
0.0 inch
0.0 inch
0.0 inch
0.0 inch
0.0 inch
0.0 inch
0.0 inch

Radar and precipitation nowcast for Lugano

Drizzle
Light
Moderate
Heavy
Very Heavy
Hail

The location marker is placed on Lugano. This animation shows the precipitation radar for the selected time range, as well as a 2h forecast. Orange crosses indicate lightning. Data provided by nowcast.de (available in USA, Europe, Australia). Drizzle or light snow fall might be invisible for the radar. Precipitation intensity is colour coded, ranging from turquoise to red.

Current satellite and rain images for Lugano, Switzerland

The location marker is placed on Lugano. [More]

The real-time satellite image combines visible light during daytime with infrared radiation during nighttime. At night, the image is not dark as infrared radiation can detect temperature differences. Unfortunately, low clouds and fog are difficult to distinguish from ground temperatures and thus can be almost invisible during the night. Meteosat satellite images for Europe are updated in real-time every 5 minutes. GOES-16/GOES-17 (North & South America) and Himawari (Asia) images update every 10 minutes.

Precipitation is estimated from radar and satellites. Precipitation estimates from satellites are less accurate at night than during daytime.

© 2024 meteoblue, NOAA Satellites GOES-16 and EUMETSAT. Lightning data provided by nowcast.

Back to top
×
Hey there,
seems like you are using an ad blocker.

Advertising is essential to maintain our free website with unique detail and accuracy.

Please whitelist www.meteoblue.com on your ad blocker or consider buying one of our products:

Already have a subscription?
Then please login.